Wetbulb
32.87 33.06 33.58 34.16 34.38 34.23 34.03 34.13 34.85 34.91 34.53 33.97 33.86 33.96 34.14 34.27 34.22 34.49 34.80 35.05 35.14 35.26 35.39 35.72 35.96 36.24 36.37 36.32 36.38 36.52 36.88 37.44 37.86 38.44 39.02 39.11 39.13 39.46 39.97 40.60 41.52 42.23 42.95 43.73 44.56 45.31 46.11 46.96 47.90 48.53 49.08 49.26 49.26 49.08 48.81 48.63 47.91 47.77 47.86 47.95 47.95 47.86 47.86 48.08 47.99 47.23 46.16 45.49 45.44
32.13 32.65 33.46 34.29 34.52 34.28 33.91 33.99 34.18 34.34 34.25 33.89 34.03 34.11 34.27 34.28 34.29 34.33 34.54 34.84 35.13 35.36 35.49 35.81 36.10 36.15 36.08 35.99 36.43 36.80 37.17 37.50 37.66 37.91 38.12 38.20 38.30 38.72 39.35 40.27 41.20 42.02 42.70 43.26 44.04 45.00 45.80 46.69 47.50 48.18 48.67 49.08 49.17 49.08 48.63 47.91 47.28 46.82 46.55 46.33 46.55 46.64 46.91 47.46 47.59 47.23 46.69 46.20 44.80
31.89 32.24 32.61 32.88 33.09 33.24 33.34 33.35 33.40 33.41 33.44 33.65 33.99 34.20 34.23 34.32 34.39 34.42 34.58 34.83 35.19 35.41 35.59 35.70 35.90 36.11 36.19 36.25 36.67 37.03 37.25 37.34 37.34 37.36 37.45 37.60 38.08 38.67 39.35 40.08 41.01 41.83 42.62 43.35 43.96 44.79 45.58 46.38 47.32 48.09 48.67 48.85 48.81 48.67 48.45 47.91 47.05 46.42 45.92 45.29 45.83 46.28 46.60 47.28 45.66 45.21 45.34 45.52 44.62
31.76 31.93 32.15 32.31 32.58 32.85 33.05 33.20 33.03 33.01 33.13 33.53 33.82 34.03 34.13 34.28 34.43 34.56 34.70 34.97 35.14 35.28 35.44 35.61 35.84 36.21 36.59 36.86 36.85 36.88 37.02 37.41 37.37 37.28 37.29 37.45 37.97 38.52 39.30 39.98 40.86 41.72 42.47 43.35 44.05 44.66 45.27 46.16 47.14 48.00 48.49 48.45 48.09 48.09 48.22 48.45 47.32 46.42 45.51 44.88 45.29 45.70 45.92 45.88 44.39 44.35 44.67 44.27 43.50
31.60 32.01 32.50 32.81 32.92 33.06 33.20 33.24 32.88 32.80 33.02 33.41 33.54 33.64 33.80 34.05 34.27 34.42 34.59 34.86 34.90 35.19 35.60 35.97 36.35 36.74 37.12 37.20 36.93 36.81 36.79 36.94 37.67 37.62 37.30 37.44 37.91 38.59 39.23 39.95 40.76 41.64 42.39 43.13 43.87 44.48 45.14 45.94 46.92 47.77 48.31 48.04 48.04 48.13 48.13 48.00 46.73 45.47 44.70 44.61 44.88 45.06 45.34 45.56 45.21 44.62 44.09 43.55 42.77
31.57 31.91 32.36 32.93 33.00 33.11 33.20 33.15 32.91 32.80 32.99 33.21 33.13 33.03 33.10 33.51 33.79 34.05 34.20 34.40 34.80 35.39 36.04 36.88 37.28 37.51 37.44 37.08 36.96 36.98 36.98 36.95 37.37 37.38 37.37 37.50 37.96 38.54 39.21 39.85 40.43 41.13 41.90 42.66 43.47 44.26 45.01 45.72 46.65 47.55 48.13 48.22 47.64 47.55 47.46 46.78 45.78 44.65 43.93 44.06 44.29 44.11 43.89 44.12 44.48 44.17 43.54 42.96 42.02
31.75 31.96 32.25 32.64 32.78 32.82 32.83 32.85 32.89 32.88 32.95 32.88 32.56 32.44 32.58 32.98 33.37 33.76 34.09 34.55 35.04 35.75 36.50 37.40 37.28 37.07 37.05 36.90 36.97 36.95 37.08 37.28 37.45 37.53 37.64 37.80 38.14 38.57 39.09 39.46 40.07 40.71 41.42 42.28 43.14 44.09 44.92 45.58 46.38 47.23 48.04 48.54 47.59 46.60 45.87 45.78 44.84 43.93 43.12 42.89 43.30 43.39 42.81 41.36 41.72 42.04 41.96 41.34 41.00
31.97 32.18 32.30 32.41 32.47 32.48 32.49 32.59 32.63 32.61 32.60 32.57 32.26 32.22 32.45 32.83 33.30 33.66 34.10 34.69 35.34 36.06 36.65 36.92 36.70 36.73 36.85 36.92 36.93 36.98 37.24 37.44 37.57 37.79 37.94 38.16 38.48 38.75 39.07 39.42 39.87 40.46 41.15 41.92 42.93 43.87 44.69 45.44 46.20 46.87 47.46 48.00 46.91 45.83 44.88 44.52 43.89 43.21 42.49 42.04 42.22 41.96 41.34 40.39 40.68 41.09 41.14 40.41 40.11
31.64 31.86 32.00 32.14 32.11 32.20 32.32 32.41 32.36 32.38 32.34 32.21 32.21 32.32 32.58 33.11 33.44 33.65 34.03 34.70 35.63 36.22 36.54 36.50 36.63 36.72 36.81 36.72 36.64 36.87 37.06 37.41 37.61 37.94 38.32 38.62 38.86 39.06 39.37 39.63 40.05 40.54 41.17 41.99 42.97 43.78 44.51 45.17 45.79 46.60 47.23 47.73 47.14 45.97 44.79 43.98 43.39 42.85 42.49 42.62 42.40 41.93 41.19 40.14 40.17 40.22 40.13 39.99 39.78
31.12 31.35 31.47 31.60 31.65 31.93 32.15 32.09 32.19 32.29 32.15 31.99 31.99 32.29 32.86 33.94 33.78 33.78 34.14 35.02 35.75 36.11 36.27 36.40 36.51 36.37 36.19 36.01 36.04 36.22 36.52 37.02 37.43 37.95 38.43 38.99 39.43 39.78 40.08 40.43 40.72 41.00 41.45 42.18 43.22 43.99 44.54 44.98 45.34 45.97 46.65 47.32 47.00 46.33 45.29 44.34 43.80 43.21 42.93 43.34 42.86 42.21 41.61 41.11 40.95 40.87 40.88 40.99 40.43
30.85 31.20 31.26 31.20 31.35 31.63 31.80 31.58 31.78 31.87 31.87 31.58 31.64 31.92 32.45 33.27 33.29 33.70 34.28 35.04 35.44 35.75 36.04 36.30 36.17 35.83 35.45 35.30 35.32 35.57 35.98 36.51 37.09 37.68 38.24 38.94 39.67 40.15 40.58 40.97 41.40 41.66 42.00 42.57 43.51 44.20 44.58 44.76 44.86 45.18 45.85 46.74 46.78 46.33 45.70 45.15 44.75 44.20 43.66 43.21 42.58 42.29 42.09 41.61 41.52 41.48 41.44 41.40 40.94
30.66 31.06 31.29 31.19 31.13 31.17 31.13 30.94 31.13 31.22 31.26 31.01 31.13 31.46 31.90 32.33 32.78 33.48 34.14 34.62 35.16 35.58 35.94 36.15 35.81 35.38 35.02 34.84 34.84 35.21 35.62 36.04 36.71 37.38 38.10 38.68 39.15 39.62 39.96 40.45 40.93 41.41 42.03 42.99 43.71 44.18 44.26 44.05 44.02 44.43 45.05 46.07 46.38 46.28 45.83 45.29 44.88 44.43 43.98 43.34 43.25 43.07 42.50 41.65 41.29 41.21 41.27 41.23 40.92
30.40 30.82 31.09 31.03 30.84 30.65 30.49 30.39 30.48 30.61 30.59 30.38 30.59 31.08 31.64 32.20 32.81 33.32 33.78 34.25 34.95 35.42 35.58 35.87 35.63 35.27 34.89 34.47 34.50 34.58 34.98 35.73 36.34 37.05 37.65 38.07 37.98 38.10 38.31 38.62 39.08 39.72 40.83 42.58 43.51 43.71 43.53 43.09 43.30 43.54 44.21 45.35 45.79 45.88 45.52 45.11 44.66 44.30 44.12 43.76 43.48 43.25 42.80 42.17 41.31 41.04 41.05 41.02 40.81
30.02 30.39 30.67 30.64 30.30 30.04 29.83 29.73 29.94 30.09 30.03 29.88 30.25 30.77 31.39 31.80 32.50 33.02 33.49 33.94 34.61 34.98 35.31 35.46 35.42 35.33 34.89 34.35 34.08 34.12 34.53 35.18 35.70 36.25 36.77 37.25 37.09 36.93 36.96 37.06 37.31 37.87 38.88 40.92 42.65 43.35 43.12 42.22 42.83 43.21 43.62 44.41 44.89 45.07 44.93 44.75 44.48 44.21 43.94 43.58 43.26 42.95 42.72 42.49 41.94 41.77 41.55 41.10 40.69
29.39 29.84 30.21 30.14 29.69 29.32 29.19 29.10 29.39 29.56 29.52 29.40 29.87 30.47 30.99 31.39 32.05 32.61 33.07 33.48 34.17 34.81 35.20 34.96 34.99 34.97 34.76 34.28 33.89 33.81 33.97 34.53 34.76 35.13 35.71 36.40 36.77 36.66 36.35 36.21 36.27 36.56 37.23 38.53 41.03 42.81 43.52 42.57 42.49 42.92 43.21 43.35 43.87 44.22 44.17 43.85 43.76 43.35 42.86 42.45 42.45 42.40 42.22 42.09 42.18 42.18 42.00 41.46 40.69
28.79 29.20 29.58 29.42 29.02 28.72 28.58 28.53 28.87 28.98 28.98 28.92 29.46 30.04 30.55 31.00 31.55 32.06 32.55 32.88 33.88 34.50 34.73 34.50 34.45 34.39 34.35 34.28 33.88 33.63 33.63 33.86 33.95 34.15 34.62 35.41 36.18 36.49 36.31 35.94 35.84 35.75 35.91 36.32 37.83 39.79 41.49 42.21 42.35 42.59 42.56 42.09 42.53 42.78 42.77 42.22 42.00 41.13 40.09 39.95 40.59 41.05 41.28 41.46 41.64 41.69 41.69 41.60 40.91
28.18 28.66 28.97 28.90 28.54 28.29 28.14 28.12 28.32 28.39 28.40 28.40 28.90 29.53 30.11 30.57 31.00 31.56 32.17 32.64 33.32 33.78 34.09 34.17 34.28 34.09 33.87 33.73 33.58 33.50 33.41 33.43 33.31 33.43 33.78 34.43 35.43 36.22 36.54 36.15 35.82 35.52 35.29 35.14 35.40 36.07 37.23 38.93 40.15 40.69 40.60 40.25 40.30 40.43 40.43 40.13 39.94 39.21 38.47 38.32 38.87 39.46 40.05 40.77 40.68 40.77 40.91 41.10 40.64
27.44 27.93 28.32 28.37 28.13 27.92 27.84 27.92 27.91 27.90 27.94 27.86 28.39 29.07 29.72 30.25 30.65 31.12 31.58 32.24 32.76 33.22 33.59 33.88 33.89 33.79 33.39 32.99 32.98 33.07 33.19 32.92 32.69 32.78 33.16 33.77 34.69 35.75 36.54 36.76 36.27 35.73 35.11 34.60 34.45 34.54 34.85 35.52 36.51 37.27 37.85 37.98 37.97 38.02 38.12 38.15 38.08 38.08 38.07 37.96 38.14 38.45 38.94 39.38 39.46 39.68 39.95 40.05 39.95
26.78 27.19 27.49 27.57 27.43 27.33 27.31 27.62 27.54 27.46 27.37 27.44 28.05 28.82 29.51 29.98 30.39 30.68 31.01 31.62 32.51 33.13 33.62 33.83 33.54 33.34 33.08 32.70 32.42 32.60 32.70 32.50 32.21 32.26 32.57 33.13 33.85 34.81 35.90 37.00 36.70 36.05 35.29 34.57 34.16 34.06 34.10 34.23 34.58 35.07 35.46 35.77 35.94 36.03 36.16 36.43 36.45 36.67 36.86 37.04 37.29 37.55 37.91 38.30 38.73 39.13 39.34 39.51 39.64
26.22 26.39 26.60 26.73 26.69 26.45 26.43 26.72 26.78 26.63 26.76 27.12 27.73 28.42 29.01 29.48 29.98 30.27 30.57 31.19 32.11 33.09 33.69 33.83 33.33 33.00 32.70 32.43 32.08 31.95 32.04 32.14 31.85 31.81 32.02 32.54 33.06 33.70 34.72 36.24 36.96 36.62 35.70 34.81 34.17 33.80 33.62 33.62 33.74 33.91 34.03 34.11 34.15 34.27 34.39 34.57 34.82 35.03 35.37 35.73 35.86 36.22 36.59 37.10 37.73 38.27 38.76 39.28 39.67
25.89 25.87 25.93 26.00 25.76 25.54 25.59 25.90 26.04 26.24 26.38 26.63 27.28 27.80 28.30 28.86 29.40 29.85 30.29 30.91 31.74 32.59 33.36 33.68 33.30 32.88 32.54 32.06 31.67 31.37 31.40 31.79 31.53 31.47 31.60 31.99 32.43 32.98 33.78 34.93 36.55 36.91 36.35 35.33 34.39 33.67 33.31 33.17 33.17 33.12 33.11 33.05 32.91 32.94 33.05 33.09 33.27 33.54 33.92 34.18 34.52 34.75 35.08 35.50 36.02 36.69 37.49 38.34 39.31
25.48 25.24 25.07 25.05 24.97 25.19 25.44 25.63 25.82 25.92 26.09 26.42 26.99 27.38 27.73 28.24 28.90 29.54 30.07 30.63 31.16 32.00 32.81 33.43 33.17 32.89 32.49 31.90 31.39 31.20 31.10 31.24 31.11 31.11 31.31 31.52 31.83 32.47 33.24 33.99 35.05 36.37 36.95 36.00 34.91 33.92 33.20 32.81 32.76 32.64 32.49 32.30 32.29 32.33 32.45 32.44 32.35 32.48 32.67 32.87 33.28 33.59 33.85 34.18 34.59 35.16 35.92 36.91 38.17
24.67 24.49 24.45 24.53 24.53 25.01 25.48 25.45 25.42 25.52 25.78 26.27 26.69 26.91 27.22 27.69 28.51 29.24 29.67 30.02 30.61 31.42 32.26 33.24 33.16 32.94 32.54 32.03 31.62 31.24 30.89 30.62 30.56 30.67 30.80 31.01 31.21 31.69 32.32 32.97 33.41 35.03 36.66 37.19 36.08 34.67 33.36 32.42 32.30 32.18 32.09 31.89 31.85 31.89 31.93 31.88 31.96 31.95 31.95 32.00 32.29 32.56 32.87 33.14 33.58 34.02 34.68 35.50 36.73
23.68 23.70 24.00 24.23 24.10 24.29 24.55 24.66 24.81 25.02 25.32 25.84 26.24 26.46 26.67 27.16 28.10 28.74 29.19 29.44 29.92 30.74 31.80 32.99 33.09 32.97 32.65 32.17 31.80 31.29 30.71 30.19 29.96 29.99 30.10 30.33 30.56 30.82 31.27 31.92 32.18 33.44 35.48 38.15 37.91 36.85 35.30 33.31 32.23 31.84 31.80 31.80 31.64 31.59 31.56 31.56 31.67 31.70 31.70 31.70 31.75 31.93 32.15 32.56 33.05 33.36 33.80 34.46 35.47
22.92 23.12 23.34 23.27 23.37 23.56 23.85 23.99 24.09 24.39 24.84 25.55 25.94 26.11 26.20 26.66 27.64 28.32 28.76 29.04 29.34 30.09 31.16 32.56 32.82 32.84 32.51 31.96 31.71 31.29 30.83 30.09 29.76 29.51 29.50 29.59 29.82 29.99 30.23 30.68 31.08 32.10 33.98 37.50 39.52 39.45 38.22 36.62 34.33 32.67 31.71 31.51 31.44 31.37 31.26 31.26 31.31 31.42 31.49 31.58 31.66 31.69 31.77 32.09 32.67 33.10 33.44 33.93 34.73
22.18 22.26 22.28 22.37 22.54 22.67 22.83 23.12 23.38 23.89 24.50 25.15 25.51 25.59 25.66 26.15 27.18 27.82 28.29 28.60 28.87 29.45 30.41 31.93 32.41 32.68 32.57 31.54 31.22 30.96 30.63 30.12 29.86 29.49 29.19 29.01 29.07 29.00 29.18 29.51 29.88 30.86 32.94 36.43 39.56 39.90 38.95 38.41 36.98 34.82 32.65 31.18 31.09 30.96 30.81 30.74 31.03 31.21 31.31 31.50 31.51 31.53 31.63 31.78 32.25 32.74 33.23 33.71 34.44
21.32 21.36 21.50 21.69 21.64 21.69 21.85 22.31 22.70 23.15 23.73 24.37 24.60 24.80 25.11 25.72 26.52 27.15 27.69 28.18 28.63 28.96 29.62 30.89 31.80 32.47 32.47 31.30 30.89 30.55 30.20 29.90 29.78 29.64 29.47 29.17 28.78 28.40 28.26 28.52 28.91 30.23 32.52 36.11 39.34 39.79 38.97 38.41 37.65 36.23 34.14 31.67 30.92 30.58 30.44 30.36 30.60 30.82 31.04 31.15 31.29 31.34 31.44 31.53 32.01 32.53 33.05 33.32 33.98
20.36 20.60 20.71 20.70 20.66 20.77 21.20 21.76 21.98 22.21 22.55 23.14 23.53 24.05 24.59 25.17 25.62 26.11 26.79 27.63 28.18 28.35 28.53 29.43 30.80 31.72 31.85 31.18 30.80 30.36 30.09 29.85 29.67 29.58 29.56 29.46 28.91 28.41 28.06 28.05 28.28 29.97 32.80 36.33 39.03 39.48 38.80 38.16 37.54 36.56 35.06 32.75 31.14 30.53 30.37 30.15 30.26 30.46 30.63 30.81 30.95 31.14 31.33 31.53 31.97 32.31 32.61 32.81 33.33
19.66 19.86 19.89 19.74 19.80 20.11 20.59 20.99 21.19 21.47 21.79 22.08 22.59 23.14 23.82 24.38 24.70 25.15 25.82 26.85 27.37 27.51 27.53 28.11 29.34 30.18 30.70 30.80 30.54 30.24 30.03 29.85 29.74 29.67 29.53 29.37 28.98 28.55 28.31 28.21 28.18 29.92 32.98 36.55 38.83 39.25 38.64 37.76 37.11 36.37 35.27 33.73 31.58 30.45 30.08 29.96 30.08 30.23 30.41 30.55 30.65 30.84 31.09 31.34 31.61 31.91 32.21 32.42 32.79
19.06 19.21 19.21 19.07 19.22 19.60 19.98 20.35 20.75 21.05 21.30 21.58 21.69 22.04 22.54 23.20 23.62 24.04 24.69 25.68 26.46 27.07 27.41 27.57 27.79 28.14 28.65 29.74 30.06 30.11 29.96 29.86 29.80 29.65 29.52 29.32 29.21 28.92 28.63 28.75 28.27 29.76 32.76 36.74 38.90 39.24 38.59 37.59 36.81 36.03 35.12 33.94 31.85 30.44 29.67 29.81 29.84 29.89 30.01 30.14 30.20 30.39 30.68 30.90 31.02 31.31 31.58 31.96 32.27
18.51 18.61 18.63 18.61 18.79 19.13 19.55 20.05 20.44 20.56 20.75 20.71 20.74 20.90 21.25 21.57 22.11 22.72 23.54 24.70 26.05 27.08 27.56 27.22 26.61 26.50 27.15 28.43 29.33 29.69 29.73 29.71 29.58 29.47 29.38 29.14 29.59 29.31 28.85 28.40 28.26 29.88 33.09 37.50 39.30 39.27 38.23 37.35 36.53 35.72 34.81 33.82 31.80 30.22 29.41 29.47 29.55 29.50 29.53 29.52 29.65 29.80 30.14 30.54 30.79 30.99 31.20 31.48 31.75
18.16 18.15 18.19 18.14 18.31 18.76 19.34 19.76 20.01 20.09 20.06 19.85 19.83 19.91 20.17 20.36 21.00 21.86 22.91 24.39 25.58 26.17 26.33 26.01 25.50 25.54 26.03 27.01 28.04 28.77 29.15 29.18 28.98 29.09 29.27 29.40 29.19 28.84 28.59 28.59 28.40 30.22 33.63 38.29 39.46 39.00 37.82 37.00 36.16 35.32 34.51 33.64 31.77 29.96 29.03 29.15 29.20 29.27 29.27 29.19 29.27 29.44 29.72 30.21 30.65 30.90 31.07 31.26 31.45
17.76 17.76 17.76 17.72 18.06 18.55 19.09 19.51 19.65 19.71 19.62 19.35 19.24 19.34 19.49 19.76 20.40 21.07 22.10 23.73 24.83 25.15 24.97 24.87 24.66 24.78 25.10 25.78 26.73 27.62 28.34 28.59 28.43 28.76 29.26 29.60 29.37 29.07 28.81 28.67 28.63 30.90 34.48 38.64 39.08 38.36 37.29 36.68 35.82 35.04 34.33 33.48 31.24 29.60 28.70 28.88 29.04 29.16 29.09 28.97 28.93 29.01 29.27 29.65 30.30 30.83 31.16 31.23 31.35
17.44 17.39 17.44 17.56 18.09 18.50 18.87 19.37 19.59 19.49 19.33 18.95 18.81 18.91 19.05 19.31 19.62 20.23 21.17 22.95 23.97 24.32 24.38 24.47 24.46 24.59 24.90 25.46 26.19 26.99 27.76 28.45 27.88 27.81 28.12 28.81 29.02 28.97 28.62 28.10 28.44 31.23 34.97 38.22 38.18 37.49 36.61 36.22 35.48 34.86 34.03 33.12 30.60 29.04 28.37 28.43 28.73 28.74 28.61 28.40 28.23 28.20 28.37 28.74 29.57 30.46 31.09 31.40 31.23
17.31 17.31 17.35 17.67 17.98 18.33 18.72 19.20 19.39 19.30 19.02 18.54 18.41 18.50 18.72 18.92 19.11 19.58 20.72 22.67 23.45 23.45 23.39 23.87 24.18 24.38 24.56 25.14 25.94 26.85 27.52 27.81 27.23 27.31 27.78 28.41 28.62 28.49 28.06 27.57 28.17 31.02 34.53 37.28 37.63 36.79 35.92 35.67 35.11 34.47 33.46 31.94 29.59 28.23 27.73 27.73 27.84 27.87 27.70 27.64 27.34 27.15 27.07 27.38 28.39 29.60 30.75 31.62 31.41
17.54 17.54 17.56 17.81 17.90 18.13 18.54 19.15 19.16 19.00 18.58 18.16 17.99 18.08 18.27 18.57 18.92 19.57 20.73 22.55 22.53 22.25 22.17 22.81 23.21 23.41 23.71 24.23 25.30 26.50 27.43 27.40 27.02 27.12 27.48 28.10 28.14 27.76 27.32 26.83 27.36 29.98 33.32 36.24 37.29 36.58 35.46 35.17 34.59 33.90 32.58 30.32 28.43 27.41 27.04 26.83 26.84 26.82 26.87 27.17 27.01 26.66 26.33 26.31 27.05 28.38 30.00 31.77 31.97
17.99 18.06 18.02 18.01 17.81 18.06 18.64 19.35 19.17 18.53 17.96 17.66 17.68 17.80 18.02 18.28 18.76 19.52 20.59 21.91 21.04 20.87 21.23 21.88 22.08 22.27 22.77 23.54 24.70 26.02 27.29 27.89 27.26 26.92 26.94 27.50 27.60 27.40 26.95 26.37 26.61 28.60 31.64 34.84 36.98 36.54 35.22 34.73 34.29 33.24 31.49 28.71 27.26 26.69 26.46 26.23 25.99 25.76 25.77 26.33 26.60 26.52 26.26 25.90 26.18 27.12 28.84 31.26 32.81
18.40 18.45 18.34 18.04 17.80 18.20 19.01 19.84 19.17 18.23 17.41 17.18 17.39 17.68 18.04 18.38 18.67 19.29 20.33 21.45 20.32 20.14 20.55 21.13 21.27 21.71 22.49 23.59 24.53 25.85 27.17 28.10 27.48 26.85 26.38 26.37 26.87 27.17 27.00 25.94 26.24 27.73 30.27 33.49 36.22 36.47 35.33 34.40 33.92 32.93 31.02 27.98 26.54 26.06 25.93 25.74 25.37 25.03 24.87 25.03 25.89 26.21 26.20 25.96 25.85 26.36 27.62 29.99 33.44
18.70 18.73 18.52 18.08 17.85 18.58 19.64 20.34 19.07 17.87 17.05 16.94 17.07 17.31 17.72 18.21 18.57 19.38 20.17 20.82 20.06 20.10 20.39 20.58 20.93 21.58 22.67 24.13 24.57 25.46 26.56 27.75 27.44 26.82 26.29 25.74 26.50 27.44 27.53 25.94 26.02 27.35 29.62 32.53 35.02 36.16 35.82 34.23 33.71 32.82 31.16 28.34 26.40 25.71 25.60 25.38 24.99 24.62 24.35 24.33 24.94 25.44 25.75 25.81 25.86 26.10 26.87 28.46 32.79
18.81 18.71 18.44 17.94 18.00 19.10 20.20 20.41 18.65 17.47 16.95 16.86 16.71 16.95 17.37 18.06 18.75 19.39 19.83 19.97 19.87 20.14 20.44 20.63 20.90 21.61 22.85 24.47 24.32 24.65 25.44 26.82 26.89 26.69 26.34 26.01 26.62 27.69 28.03 26.12 26.05 27.06 28.92 31.59 33.79 35.52 36.20 35.22 33.99 32.88 31.16 27.86 26.24 25.61 25.47 25.18 24.71 24.18 23.85 23.71 23.96 24.34 24.82 25.35 25.75 25.98 26.26 26.86 29.73
18.41 18.31 18.18 17.80 18.31 19.61 20.57 19.88 18.06 17.12 16.76 16.67 16.55 17.07 17.87 18.60 18.48 18.46 18.62 19.05 19.51 20.07 20.58 20.77 20.86 21.51 22.52 23.95 23.89 23.99 24.41 25.36 26.18 26.33 26.27 26.26 26.29 26.94 27.13 25.93 25.88 26.51 27.80 29.93 32.39 34.30 35.63 36.31 34.93 33.71 31.78 28.52 26.27 25.54 25.40 25.01 24.34 23.64 23.10 22.99 23.22 23.46 23.82 24.28 24.97 25.40 25.65 25.75 26.48
MSLP
1023.89 1023.65 1023.37 1023.05 1022.73 1022.45 1022.21 1021.93 1021.65 1021.45 1021.21 1020.97 1020.69 1020.41 1020.09 1019.77 1019.49 1019.17 1018.89 1018.65 1018.37 1018.09 1017.77 1017.49 1017.21 1016.89 1016.57 1016.33 1016.17 1015.89 1015.53 1015.17 1014.85 1014.57 1014.29 1014.01 1013.77 1013.49 1013.21 1012.89 1012.61 1012.29 1012.01 1011.65 1011.37 1011.05 1010.73 1010.41 1010.17 1009.93 1009.65 1009.41 1009.21 1009.13 1008.97 1008.81 1008.77 1008.73 1008.73 1008.65 1008.45 1008.29 1008.29 1008.33 1008.13 1007.65 1007.05 1006.65 1006.61
1023.93 1023.69 1023.41 1023.13 1022.89 1022.61 1022.29 1021.97 1021.73 1021.49 1021.37 1021.13 1020.85 1020.53 1020.21 1019.93 1019.61 1019.29 1019.05 1018.77 1018.53 1018.25 1017.93 1017.53 1017.21 1016.89 1016.61 1016.33 1016.09 1015.81 1015.49 1015.13 1014.77 1014.49 1014.21 1013.93 1013.65 1013.37 1013.09 1012.77 1012.45 1012.13 1011.85 1011.53 1011.21 1010.93 1010.65 1010.33 1010.05 1009.81 1009.49 1009.25 1009.13 1008.97 1008.77 1008.65 1008.65 1008.65 1008.65 1008.53 1008.37 1008.21 1008.17 1008.21 1008.21 1007.77 1007.17 1006.57 1006.53
1024.01 1023.73 1023.45 1023.17 1022.93 1022.65 1022.37 1022.05 1021.81 1021.65 1021.45 1021.21 1020.93 1020.65 1020.33 1020.05 1019.77 1019.49 1019.21 1018.89 1018.65 1018.33 1017.97 1017.61 1017.21 1016.89 1016.57 1016.25 1015.93 1015.69 1015.41 1015.09 1014.77 1014.45 1014.09 1013.77 1013.49 1013.21 1012.93 1012.61 1012.29 1011.97 1011.65 1011.37 1011.09 1010.81 1010.53 1010.25 1009.97 1009.65 1009.37 1009.17 1009.01 1008.81 1008.65 1008.45 1008.45 1008.49 1008.49 1008.41 1008.25 1008.09 1008.01 1008.05 1008.21 1008.05 1007.45 1006.69 1006.45
1024.05 1023.77 1023.49 1023.21 1022.97 1022.77 1022.49 1022.25 1022.01 1021.77 1021.53 1021.25 1020.97 1020.69 1020.49 1020.21 1019.89 1019.61 1019.33 1018.93 1018.65 1018.33 1018.01 1017.65 1017.25 1016.85 1016.49 1016.17 1015.81 1015.53 1015.25 1014.97 1014.69 1014.33 1014.01 1013.65 1013.33 1013.05 1012.77 1012.45 1012.09 1011.77 1011.45 1011.17 1010.93 1010.65 1010.33 1010.13 1009.85 1009.53 1009.25 1009.05 1008.89 1008.65 1008.45 1008.25 1008.21 1008.25 1008.33 1008.33 1008.17 1007.97 1007.93 1008.05 1008.21 1008.21 1007.85 1007.13 1006.65
1024.09 1023.85 1023.61 1023.33 1023.05 1022.85 1022.65 1022.45 1022.21 1021.93 1021.65 1021.37 1021.09 1020.81 1020.57 1020.29 1020.01 1019.69 1019.33 1018.93 1018.65 1018.29 1017.97 1017.65 1017.21 1016.81 1016.45 1016.09 1015.77 1015.45 1015.09 1014.77 1014.49 1014.17 1013.81 1013.49 1013.13 1012.81 1012.53 1012.21 1011.93 1011.57 1011.21 1010.93 1010.65 1010.41 1010.17 1009.93 1009.65 1009.37 1009.09 1008.93 1008.73 1008.53 1008.33 1008.17 1008.05 1008.13 1008.21 1008.21 1008.05 1007.93 1007.89 1008.05 1008.21 1008.29 1008.05 1007.57 1007.17
1024.17 1023.93 1023.65 1023.41 1023.17 1022.93 1022.77 1022.61 1022.33 1022.09 1021.81 1021.49 1021.21 1020.93 1020.65 1020.41 1020.05 1019.77 1019.45 1019.05 1018.65 1018.33 1017.93 1017.53 1017.17 1016.77 1016.37 1016.01 1015.65 1015.25 1014.93 1014.57 1014.25 1013.93 1013.65 1013.25 1012.93 1012.61 1012.29 1011.97 1011.65 1011.37 1011.05 1010.77 1010.49 1010.21 1009.97 1009.69 1009.45 1009.17 1008.93 1008.77 1008.65 1008.49 1008.33 1008.17 1008.05 1008.09 1008.25 1008.33 1008.21 1008.01 1007.93 1008.05 1008.21 1008.29 1008.13 1007.73 1007.57
1024.33 1024.05 1023.77 1023.49 1023.25 1023.05 1022.89 1022.69 1022.41 1022.17 1021.89 1021.61 1021.33 1021.05 1020.77 1020.49 1020.17 1019.85 1019.49 1019.05 1018.65 1018.25 1017.89 1017.49 1017.09 1016.77 1016.33 1015.97 1015.53 1015.13 1014.77 1014.37 1014.05 1013.73 1013.41 1013.05 1012.73 1012.37 1012.05 1011.73 1011.45 1011.17 1010.85 1010.57 1010.29 1010.01 1009.77 1009.53 1009.29 1009.01 1008.77 1008.65 1008.57 1008.37 1008.25 1008.21 1008.09 1008.21 1008.45 1008.65 1008.49 1008.37 1008.29 1008.21 1008.21 1008.25 1008.13 1007.85 1007.85
1024.41 1024.09 1023.85 1023.65 1023.41 1023.21 1022.97 1022.77 1022.49 1022.21 1021.93 1021.65 1021.41 1021.13 1020.81 1020.49 1020.17 1019.81 1019.45 1019.05 1018.69 1018.29 1017.93 1017.53 1017.17 1016.77 1016.37 1016.01 1015.53 1015.09 1014.69 1014.25 1013.89 1013.49 1013.17 1012.85 1012.49 1012.13 1011.77 1011.49 1011.17 1010.85 1010.57 1010.29 1010.05 1009.81 1009.57 1009.37 1009.13 1008.89 1008.65 1008.53 1008.49 1008.33 1008.21 1008.25 1008.21 1008.45 1008.81 1009.05 1009.05 1009.05 1008.85 1008.41 1008.21 1008.13 1008.05 1007.97 1008.09
1024.45 1024.17 1023.93 1023.73 1023.53 1023.33 1023.05 1022.85 1022.61 1022.29 1022.01 1021.77 1021.49 1021.21 1020.93 1020.53 1020.17 1019.81 1019.49 1019.09 1018.69 1018.33 1017.93 1017.57 1017.17 1016.77 1016.37 1016.01 1015.57 1015.13 1014.69 1014.29 1013.85 1013.45 1013.05 1012.69 1012.33 1011.93 1011.57 1011.21 1010.89 1010.57 1010.29 1010.01 1009.81 1009.57 1009.37 1009.17 1008.93 1008.73 1008.53 1008.41 1008.33 1008.25 1008.21 1008.17 1008.21 1008.53 1008.93 1009.17 1009.21 1009.13 1008.77 1008.21 1007.97 1007.85 1007.77 1007.77 1007.85
1024.53 1024.25 1024.01 1023.77 1023.65 1023.41 1023.13 1022.89 1022.65 1022.33 1022.05 1021.81 1021.57 1021.25 1020.93 1020.61 1020.25 1019.93 1019.57 1019.21 1018.77 1018.33 1017.97 1017.61 1017.21 1016.85 1016.49 1016.05 1015.65 1015.25 1014.85 1014.41 1013.97 1013.49 1013.05 1012.61 1012.17 1011.73 1011.37 1010.97 1010.65 1010.33 1010.01 1009.77 1009.53 1009.33 1009.09 1008.93 1008.73 1008.57 1008.41 1008.25 1008.21 1008.17 1008.13 1008.05 1008.21 1008.49 1008.77 1008.97 1008.93 1008.61 1008.17 1007.77 1007.65 1007.57 1007.49 1007.49 1007.57
1024.65 1024.33 1024.13 1023.93 1023.77 1023.49 1023.25 1022.97 1022.65 1022.37 1022.09 1021.89 1021.61 1021.29 1020.93 1020.65 1020.29 1019.97 1019.65 1019.21 1018.77 1018.37 1018.01 1017.65 1017.33 1016.93 1016.57 1016.21 1015.77 1015.41 1015.01 1014.57 1014.13 1013.65 1013.17 1012.65 1012.21 1011.77 1011.33 1010.93 1010.49 1010.17 1009.81 1009.53 1009.29 1009.09 1008.93 1008.73 1008.57 1008.41 1008.25 1008.09 1008.05 1008.05 1008.09 1008.05 1008.17 1008.33 1008.53 1008.61 1008.53 1008.29 1008.01 1007.85 1007.85 1007.77 1007.65 1007.57 1007.57
1024.77 1024.49 1024.25 1024.05 1023.89 1023.65 1023.37 1023.05 1022.77 1022.45 1022.21 1021.93 1021.65 1021.37 1021.05 1020.69 1020.37 1020.05 1019.65 1019.25 1018.81 1018.41 1018.05 1017.73 1017.45 1017.09 1016.73 1016.33 1015.97 1015.57 1015.13 1014.69 1014.25 1013.77 1013.29 1012.77 1012.37 1011.93 1011.49 1011.05 1010.65 1010.21 1009.77 1009.37 1009.09 1008.89 1008.69 1008.57 1008.45 1008.29 1008.13 1007.97 1007.85 1007.85 1007.93 1008.05 1008.09 1008.21 1008.25 1008.29 1008.29 1008.09 1007.97 1007.97 1008.09 1008.17 1008.05 1007.85 1007.73
1024.93 1024.65 1024.37 1024.21 1023.97 1023.73 1023.49 1023.21 1022.89 1022.57 1022.29 1022.05 1021.77 1021.41 1021.09 1020.77 1020.45 1020.05 1019.69 1019.29 1018.89 1018.49 1018.13 1017.81 1017.53 1017.21 1016.93 1016.57 1016.21 1015.77 1015.33 1014.85 1014.41 1013.93 1013.49 1013.01 1012.65 1012.21 1011.81 1011.37 1010.93 1010.45 1009.93 1009.37 1009.01 1008.73 1008.57 1008.45 1008.37 1008.25 1008.05 1007.89 1007.69 1007.65 1007.77 1007.89 1007.97 1008.05 1008.05 1008.05 1008.05 1008.01 1007.97 1008.05 1008.21 1008.29 1008.25 1008.09 1007.97
1025.09 1024.81 1024.57 1024.33 1024.13 1023.93 1023.65 1023.33 1023.01 1022.69 1022.41 1022.17 1021.85 1021.53 1021.21 1020.85 1020.49 1020.17 1019.81 1019.41 1018.97 1018.61 1018.25 1017.93 1017.65 1017.37 1017.09 1016.77 1016.37 1015.93 1015.49 1015.09 1014.65 1014.17 1013.69 1013.21 1012.81 1012.45 1012.05 1011.65 1011.21 1010.77 1010.21 1009.65 1009.09 1008.69 1008.49 1008.33 1008.25 1008.21 1008.05 1007.89 1007.65 1007.57 1007.57 1007.65 1007.77 1007.85 1007.89 1007.93 1007.93 1007.89 1007.89 1007.93 1008.05 1008.17 1008.21 1008.25 1008.25
1025.21 1024.97 1024.69 1024.49 1024.29 1024.05 1023.77 1023.49 1023.17 1022.85 1022.57 1022.29 1021.97 1021.65 1021.33 1020.97 1020.65 1020.33 1019.93 1019.49 1019.09 1018.69 1018.37 1018.05 1017.77 1017.49 1017.21 1016.93 1016.53 1016.13 1015.69 1015.29 1014.89 1014.45 1013.97 1013.49 1013.01 1012.65 1012.29 1011.89 1011.49 1011.05 1010.57 1010.05 1009.45 1008.93 1008.53 1008.33 1008.21 1008.13 1008.05 1007.93 1007.77 1007.65 1007.53 1007.49 1007.57 1007.65 1007.73 1007.77 1007.77 1007.81 1007.81 1007.77 1007.85 1007.97 1008.09 1008.21 1008.33
1025.41 1025.13 1024.85 1024.65 1024.45 1024.21 1023.97 1023.65 1023.37 1023.05 1022.77 1022.49 1022.13 1021.77 1021.49 1021.13 1020.77 1020.45 1020.05 1019.61 1019.21 1018.77 1018.49 1018.21 1017.93 1017.65 1017.37 1017.05 1016.73 1016.33 1015.93 1015.49 1015.13 1014.73 1014.29 1013.77 1013.33 1012.89 1012.49 1012.17 1011.77 1011.37 1010.93 1010.49 1009.97 1009.49 1009.01 1008.65 1008.41 1008.21 1008.13 1008.01 1007.93 1007.85 1007.77 1007.69 1007.61 1007.65 1007.73 1007.77 1007.81 1007.85 1007.85 1007.81 1007.81 1007.89 1007.97 1008.05 1008.21
1025.61 1025.33 1025.05 1024.81 1024.61 1024.37 1024.13 1023.85 1023.57 1023.25 1022.97 1022.65 1022.29 1021.93 1021.57 1021.25 1020.93 1020.57 1020.21 1019.77 1019.37 1018.93 1018.57 1018.29 1018.05 1017.77 1017.49 1017.21 1016.89 1016.49 1016.13 1015.77 1015.41 1015.05 1014.65 1014.17 1013.65 1013.17 1012.77 1012.49 1012.13 1011.77 1011.37 1010.93 1010.53 1010.09 1009.69 1009.29 1008.93 1008.69 1008.49 1008.33 1008.25 1008.29 1008.33 1008.21 1008.05 1007.93 1007.85 1007.89 1007.93 1008.01 1007.97 1007.97 1007.97 1008.01 1008.01 1008.05 1008.17
1025.77 1025.49 1025.21 1025.01 1024.73 1024.49 1024.25 1024.01 1023.69 1023.41 1023.09 1022.77 1022.41 1022.05 1021.69 1021.37 1021.05 1020.69 1020.33 1019.93 1019.49 1019.09 1018.69 1018.37 1018.13 1017.93 1017.65 1017.37 1017.05 1016.73 1016.37 1016.01 1015.65 1015.37 1014.97 1014.53 1014.05 1013.53 1013.09 1012.77 1012.45 1012.09 1011.73 1011.37 1011.01 1010.69 1010.33 1009.97 1009.65 1009.37 1009.13 1008.89 1008.77 1008.81 1008.85 1008.81 1008.65 1008.33 1008.17 1008.13 1008.13 1008.21 1008.25 1008.29 1008.25 1008.21 1008.17 1008.13 1008.21
1025.93 1025.65 1025.41 1025.17 1024.89 1024.65 1024.37 1024.09 1023.77 1023.49 1023.21 1022.89 1022.49 1022.13 1021.77 1021.49 1021.13 1020.77 1020.41 1020.01 1019.61 1019.21 1018.85 1018.49 1018.21 1018.01 1017.77 1017.53 1017.21 1016.93 1016.57 1016.21 1015.89 1015.57 1015.21 1014.81 1014.33 1013.89 1013.41 1013.01 1012.69 1012.37 1012.09 1011.77 1011.49 1011.21 1010.89 1010.61 1010.33 1010.05 1009.77 1009.49 1009.33 1009.29 1009.29 1009.21 1009.05 1008.77 1008.53 1008.41 1008.37 1008.41 1008.49 1008.57 1008.57 1008.49 1008.37 1008.33 1008.37
1026.13 1025.85 1025.57 1025.33 1025.05 1024.77 1024.53 1024.21 1023.93 1023.61 1023.25 1022.93 1022.61 1022.21 1021.85 1021.49 1021.21 1020.85 1020.49 1020.13 1019.73 1019.33 1018.97 1018.65 1018.37 1018.13 1017.89 1017.65 1017.37 1017.05 1016.69 1016.41 1016.09 1015.73 1015.37 1015.01 1014.61 1014.17 1013.73 1013.29 1012.93 1012.65 1012.41 1012.17 1011.93 1011.65 1011.37 1011.13 1010.85 1010.57 1010.29 1010.05 1009.89 1009.77 1009.65 1009.57 1009.41 1009.21 1008.97 1008.81 1008.77 1008.81 1008.85 1008.85 1008.81 1008.77 1008.69 1008.65 1008.65
1026.33 1026.05 1025.77 1025.49 1025.21 1024.93 1024.65 1024.33 1024.01 1023.65 1023.33 1023.01 1022.65 1022.29 1021.93 1021.57 1021.21 1020.89 1020.57 1020.21 1019.85 1019.45 1019.05 1018.77 1018.53 1018.29 1018.01 1017.77 1017.49 1017.17 1016.89 1016.57 1016.25 1015.93 1015.53 1015.17 1014.77 1014.45 1014.05 1013.65 1013.21 1012.89 1012.65 1012.41 1012.21 1012.05 1011.81 1011.61 1011.33 1011.05 1010.77 1010.53 1010.37 1010.25 1010.09 1009.93 1009.77 1009.61 1009.45 1009.33 1009.29 1009.25 1009.21 1009.21 1009.17 1009.05 1008.97 1008.93 1008.85
1026.49 1026.25 1025.97 1025.69 1025.37 1025.05 1024.77 1024.45 1024.09 1023.73 1023.37 1023.05 1022.69 1022.33 1021.97 1021.65 1021.29 1020.97 1020.65 1020.33 1019.93 1019.53 1019.17 1018.85 1018.65 1018.41 1018.21 1017.93 1017.65 1017.37 1017.05 1016.73 1016.41 1016.05 1015.73 1015.37 1015.01 1014.65 1014.29 1013.93 1013.57 1013.17 1012.77 1012.53 1012.37 1012.29 1012.21 1012.05 1011.77 1011.53 1011.25 1011.05 1010.85 1010.69 1010.53 1010.37 1010.21 1010.05 1009.93 1009.77 1009.73 1009.65 1009.57 1009.53 1009.49 1009.41 1009.29 1009.21 1009.09
1026.65 1026.41 1026.13 1025.85 1025.49 1025.17 1024.81 1024.49 1024.17 1023.77 1023.45 1023.09 1022.77 1022.41 1022.05 1021.73 1021.37 1021.05 1020.73 1020.41 1020.05 1019.65 1019.29 1018.93 1018.73 1018.49 1018.33 1018.09 1017.81 1017.57 1017.25 1016.89 1016.53 1016.21 1015.89 1015.53 1015.21 1014.81 1014.45 1014.09 1013.77 1013.41 1013.01 1012.65 1012.49 1012.49 1012.45 1012.37 1012.21 1011.93 1011.73 1011.49 1011.33 1011.17 1011.01 1010.85 1010.69 1010.53 1010.33 1010.21 1010.09 1009.97 1009.89 1009.81 1009.77 1009.69 1009.61 1009.49 1009.45
1026.81 1026.53 1026.21 1025.93 1025.61 1025.29 1024.93 1024.61 1024.21 1023.89 1023.53 1023.21 1022.81 1022.49 1022.21 1021.81 1021.45 1021.09 1020.77 1020.45 1020.13 1019.77 1019.41 1019.05 1018.77 1018.61 1018.37 1018.17 1017.93 1017.69 1017.41 1017.09 1016.77 1016.37 1016.05 1015.69 1015.37 1015.05 1014.65 1014.29 1014.01 1013.73 1013.37 1012.89 1012.61 1012.49 1012.49 1012.53 1012.45 1012.29 1012.09 1011.93 1011.73 1011.57 1011.45 1011.29 1011.13 1010.93 1010.77 1010.61 1010.45 1010.29 1010.17 1010.09 1010.05 1009.97 1009.93 1009.89 1009.89
1026.93 1026.65 1026.33 1026.01 1025.73 1025.41 1025.05 1024.69 1024.33 1024.01 1023.65 1023.33 1022.93 1022.65 1022.29 1021.93 1021.57 1021.21 1020.85 1020.57 1020.25 1019.93 1019.53 1019.21 1018.89 1018.65 1018.41 1018.21 1018.01 1017.77 1017.53 1017.29 1016.97 1016.65 1016.29 1015.93 1015.61 1015.25 1014.93 1014.53 1014.21 1013.97 1013.65 1013.21 1012.77 1012.49 1012.41 1012.49 1012.57 1012.53 1012.45 1012.25 1012.05 1011.93 1011.81 1011.69 1011.49 1011.33 1011.13 1010.97 1010.77 1010.65 1010.49 1010.37 1010.29 1010.25 1010.21 1010.21 1010.25
1027.01 1026.73 1026.41 1026.13 1025.81 1025.49 1025.17 1024.85 1024.49 1024.17 1023.81 1023.45 1023.09 1022.73 1022.41 1022.09 1021.73 1021.37 1020.97 1020.65 1020.33 1020.05 1019.69 1019.37 1018.97 1018.69 1018.49 1018.29 1018.09 1017.85 1017.65 1017.41 1017.17 1016.85 1016.49 1016.17 1015.81 1015.49 1015.17 1014.81 1014.49 1014.21 1013.85 1013.49 1013.05 1012.69 1012.49 1012.41 1012.49 1012.57 1012.61 1012.53 1012.41 1012.25 1012.13 1012.05 1011.89 1011.69 1011.53 1011.37 1011.21 1011.05 1010.93 1010.77 1010.65 1010.61 1010.57 1010.53 1010.57
1027.09 1026.77 1026.49 1026.21 1025.93 1025.65 1025.33 1025.01 1024.69 1024.33 1023.93 1023.57 1023.21 1022.93 1022.57 1022.21 1021.89 1021.49 1021.13 1020.77 1020.49 1020.21 1019.85 1019.49 1019.17 1018.81 1018.57 1018.37 1018.21 1017.93 1017.73 1017.49 1017.29 1017.01 1016.69 1016.37 1016.05 1015.73 1015.41 1015.13 1014.77 1014.45 1014.05 1013.57 1013.21 1012.93 1012.69 1012.49 1012.49 1012.57 1012.65 1012.73 1012.69 1012.57 1012.49 1012.37 1012.21 1012.05 1011.89 1011.73 1011.61 1011.45 1011.33 1011.21 1011.09 1011.01 1010.93 1010.89 1010.89
1027.21 1026.89 1026.57 1026.29 1026.01 1025.73 1025.41 1025.09 1024.77 1024.45 1024.13 1023.77 1023.49 1023.13 1022.77 1022.37 1022.05 1021.65 1021.29 1020.93 1020.61 1020.29 1019.97 1019.65 1019.37 1019.01 1018.73 1018.49 1018.25 1018.05 1017.85 1017.61 1017.37 1017.09 1016.81 1016.49 1016.17 1015.93 1015.65 1015.33 1015.05 1014.69 1014.21 1013.65 1013.33 1013.09 1012.89 1012.65 1012.57 1012.65 1012.77 1012.85 1012.89 1012.81 1012.73 1012.61 1012.49 1012.33 1012.21 1012.05 1011.93 1011.81 1011.69 1011.61 1011.49 1011.37 1011.29 1011.21 1011.17
1027.33 1027.01 1026.69 1026.37 1026.13 1025.85 1025.49 1025.21 1024.93 1024.61 1024.33 1023.97 1023.65 1023.33 1022.93 1022.57 1022.21 1021.85 1021.45 1021.05 1020.69 1020.41 1020.17 1019.93 1019.61 1019.25 1018.93 1018.65 1018.41 1018.17 1017.93 1017.65 1017.49 1017.21 1016.89 1016.57 1016.29 1016.01 1015.73 1015.45 1015.21 1014.85 1014.33 1013.77 1013.37 1013.13 1012.97 1012.81 1012.77 1012.85 1012.93 1013.01 1013.05 1013.05 1012.97 1012.85 1012.73 1012.61 1012.49 1012.33 1012.21 1012.13 1012.01 1011.93 1011.81 1011.69 1011.61 1011.53 1011.49
1027.45 1027.13 1026.81 1026.53 1026.25 1025.93 1025.65 1025.37 1025.05 1024.77 1024.45 1024.17 1023.81 1023.49 1023.13 1022.77 1022.41 1022.05 1021.65 1021.29 1020.93 1020.61 1020.33 1020.17 1019.85 1019.53 1019.21 1018.93 1018.61 1018.33 1018.05 1017.77 1017.53 1017.29 1017.01 1016.73 1016.41 1016.13 1015.85 1015.61 1015.37 1015.01 1014.49 1013.89 1013.37 1013.09 1013.05 1013.01 1013.01 1013.05 1013.17 1013.25 1013.29 1013.25 1013.21 1013.05 1012.93 1012.85 1012.73 1012.65 1012.53 1012.41 1012.33 1012.21 1012.13 1012.05 1011.93 1011.85 1011.77
1027.49 1027.21 1026.93 1026.65 1026.33 1026.05 1025.73 1025.45 1025.17 1024.89 1024.61 1024.33 1023.97 1023.65 1023.33 1023.01 1022.69 1022.33 1021.93 1021.57 1021.17 1020.81 1020.53 1020.25 1019.97 1019.65 1019.37 1019.05 1018.77 1018.49 1018.21 1017.93 1017.65 1017.37 1017.13 1016.89 1016.57 1016.29 1016.05 1015.77 1015.49 1015.13 1014.65 1013.93 1013.41 1013.21 1013.21 1013.21 1013.21 1013.33 1013.41 1013.45 1013.49 1013.49 1013.41 1013.33 1013.21 1013.09 1013.01 1012.93 1012.81 1012.73 1012.61 1012.49 1012.41 1012.33 1012.21 1012.13 1012.05
1027.61 1027.33 1027.05 1026.77 1026.45 1026.13 1025.81 1025.53 1025.25 1024.97 1024.69 1024.41 1024.13 1023.81 1023.49 1023.21 1022.89 1022.57 1022.21 1021.77 1021.37 1021.01 1020.69 1020.37 1020.09 1019.81 1019.49 1019.21 1018.93 1018.61 1018.33 1018.05 1017.77 1017.57 1017.29 1017.01 1016.73 1016.49 1016.21 1015.93 1015.65 1015.29 1014.73 1014.09 1013.65 1013.49 1013.45 1013.49 1013.49 1013.57 1013.65 1013.65 1013.65 1013.65 1013.65 1013.53 1013.45 1013.37 1013.29 1013.21 1013.09 1013.01 1012.89 1012.77 1012.69 1012.57 1012.49 1012.41 1012.33
1027.69 1027.45 1027.17 1026.85 1026.53 1026.21 1025.93 1025.65 1025.37 1025.05 1024.77 1024.49 1024.25 1023.97 1023.65 1023.37 1023.05 1022.77 1022.37 1021.97 1021.61 1021.21 1020.93 1020.65 1020.33 1020.05 1019.73 1019.41 1019.05 1018.77 1018.49 1018.21 1017.93 1017.69 1017.45 1017.17 1016.89 1016.65 1016.33 1016.09 1015.85 1015.49 1014.93 1014.41 1014.05 1013.85 1013.77 1013.77 1013.81 1013.81 1013.85 1013.89 1013.89 1013.89 1013.81 1013.73 1013.65 1013.61 1013.53 1013.45 1013.37 1013.29 1013.17 1013.05 1012.97 1012.85 1012.77 1012.69 1012.57
1027.81 1027.53 1027.25 1026.97 1026.65 1026.33 1026.01 1025.69 1025.45 1025.17 1024.89 1024.65 1024.33 1024.05 1023.77 1023.49 1023.21 1022.93 1022.57 1022.21 1021.85 1021.49 1021.21 1020.93 1020.61 1020.29 1019.93 1019.61 1019.29 1018.93 1018.65 1018.33 1018.09 1017.85 1017.61 1017.33 1017.05 1016.77 1016.53 1016.33 1016.05 1015.65 1015.17 1014.69 1014.37 1014.17 1014.05 1014.09 1014.09 1014.13 1014.13 1014.09 1014.13 1014.09 1014.01 1013.93 1013.89 1013.77 1013.73 1013.69 1013.61 1013.49 1013.41 1013.33 1013.21 1013.09 1013.01 1012.93 1012.81
1027.93 1027.65 1027.33 1027.05 1026.73 1026.41 1026.09 1025.77 1025.53 1025.25 1025.01 1024.73 1024.45 1024.17 1023.89 1023.65 1023.37 1023.09 1022.77 1022.41 1022.05 1021.77 1021.41 1021.09 1020.77 1020.45 1020.09 1019.77 1019.41 1019.09 1018.77 1018.53 1018.25 1018.01 1017.73 1017.49 1017.21 1016.93 1016.73 1016.49 1016.25 1015.85 1015.37 1014.93 1014.65 1014.45 1014.33 1014.33 1014.33 1014.33 1014.33 1014.33 1014.33 1014.33 1014.25 1014.17 1014.09 1014.05 1013.97 1013.89 1013.81 1013.73 1013.65 1013.53 1013.45 1013.37 1013.21 1013.09 1013.01
1028.05 1027.77 1027.45 1027.09 1026.77 1026.49 1026.21 1025.89 1025.65 1025.41 1025.17 1024.89 1024.57 1024.29 1024.01 1023.77 1023.49 1023.25 1022.93 1022.61 1022.25 1021.93 1021.61 1021.25 1020.93 1020.61 1020.29 1019.93 1019.57 1019.21 1018.93 1018.69 1018.45 1018.17 1017.89 1017.65 1017.37 1017.13 1016.89 1016.65 1016.41 1016.05 1015.57 1015.17 1014.93 1014.69 1014.53 1014.49 1014.53 1014.53 1014.57 1014.61 1014.61 1014.53 1014.45 1014.37 1014.33 1014.25 1014.21 1014.13 1014.05 1013.97 1013.89 1013.77 1013.65 1013.53 1013.41 1013.29 1013.17
1028.13 1027.85 1027.53 1027.21 1026.89 1026.57 1026.25 1026.01 1025.77 1025.53 1025.29 1025.05 1024.77 1024.45 1024.17 1023.89 1023.61 1023.33 1023.05 1022.73 1022.45 1022.09 1021.77 1021.41 1021.13 1020.81 1020.49 1020.13 1019.73 1019.37 1019.09 1018.85 1018.65 1018.37 1018.09 1017.81 1017.57 1017.33 1017.05 1016.81 1016.57 1016.21 1015.85 1015.45 1015.13 1014.89 1014.69 1014.65 1014.65 1014.69 1014.73 1014.77 1014.77 1014.69 1014.61 1014.57 1014.49 1014.45 1014.37 1014.33 1014.25 1014.21 1014.09 1014.01 1013.89 1013.77 1013.61 1013.41 1013.29
1028.17 1027.89 1027.61 1027.29 1026.97 1026.65 1026.33 1026.05 1025.85 1025.65 1025.45 1025.21 1024.93 1024.65 1024.33 1024.05 1023.73 1023.45 1023.17 1022.93 1022.65 1022.33 1021.93 1021.65 1021.33 1021.01 1020.65 1020.29 1019.89 1019.53 1019.25 1019.01 1018.77 1018.57 1018.29 1018.05 1017.77 1017.53 1017.25 1017.05 1016.77 1016.49 1016.09 1015.69 1015.37 1015.09 1014.93 1014.81 1014.81 1014.81 1014.85 1014.93 1014.89 1014.77 1014.69 1014.65 1014.61 1014.57 1014.53 1014.49 1014.45 1014.37 1014.29 1014.17 1014.05 1013.93 1013.77 1013.65 1013.37
1028.25 1027.97 1027.69 1027.37 1027.05 1026.69 1026.37 1026.13 1026.01 1025.85 1025.65 1025.37 1025.05 1024.77 1024.45 1024.13 1023.89 1023.61 1023.37 1023.09 1022.81 1022.49 1022.17 1021.81 1021.49 1021.21 1020.85 1020.45 1020.05 1019.69 1019.37 1019.13 1018.93 1018.69 1018.49 1018.21 1017.97 1017.69 1017.45 1017.25 1017.01 1016.69 1016.33 1015.93 1015.61 1015.33 1015.13 1014.97 1014.93 1014.93 1014.97 1015.01 1014.97 1014.89 1014.77 1014.69 1014.65 1014.65 1014.65 1014.61 1014.53 1014.49 1014.45 1014.33 1014.25 1014.13 1014.01 1013.85 1013.61
1028.33 1028.05 1027.77 1027.45 1027.13 1026.77 1026.45 1026.25 1026.17 1026.05 1025.81 1025.53 1025.25 1024.93 1024.61 1024.33 1024.05 1023.77 1023.49 1023.21 1022.93 1022.61 1022.29 1021.93 1021.65 1021.33 1020.97 1020.57 1020.17 1019.81 1019.49 1019.25 1019.05 1018.85 1018.65 1018.37 1018.13 1017.89 1017.65 1017.45 1017.21 1016.89 1016.53 1016.21 1015.81 1015.53 1015.37 1015.21 1015.09 1015.09 1015.13 1015.21 1015.13 1015.01 1014.89 1014.77 1014.77 1014.77 1014.77 1014.73 1014.69 1014.65 1014.61 1014.53 1014.45 1014.33 1014.25 1014.17 1013.97
1028.45 1028.17 1027.85 1027.49 1027.21 1026.85 1026.53 1026.37 1026.33 1026.17 1025.93 1025.69 1025.41 1025.09 1024.77 1024.49 1024.21 1023.93 1023.65 1023.33 1022.97 1022.65 1022.33 1022.01 1021.69 1021.37 1021.05 1020.65 1020.33 1019.97 1019.65 1019.37 1019.21 1018.97 1018.77 1018.53 1018.33 1018.05 1017.81 1017.65 1017.37 1017.05 1016.77 1016.45 1016.05 1015.77 1015.53 1015.37 1015.21 1015.21 1015.21 1015.33 1015.29 1015.21 1015.05 1014.97 1014.93 1014.93 1014.93 1014.93 1014.89 1014.81 1014.77 1014.73 1014.65 1014.57 1014.49 1014.41 1014.33
Wind_Speed
12 12 11 11 10 10 9 9 9 10 10 10 10 11 11 10 11 10 10 10 10 11 11 11 12 13 15 17 18 18 19 19 20 21 22 22 21 21 20 19 19 18 18 18 17 16 15 14 12 9 7 6 6 6 5 4 4 5 7 7 7 7 9 12 12 11 8 7 6
12 13 12 12 12 11 10 9 10 10 11 10 10 10 11 10 11 11 11 11 11 11 12 12 13 15 17 18 18 17 18 18 20 20 21 21 21 21 20 19 19 18 18 18 17 15 13 13 12 10 8 6 6 6 5 4 3 4 6 8 6 6 6 9 11 10 7 6 6
13 13 13 12 12 12 11 10 11 12 13 12 11 11 11 10 10 11 11 12 13 13 13 12 13 16 17 18 17 17 17 18 19 19 19 19 20 20 20 19 19 19 19 18 16 15 13 13 11 10 8 7 6 6 5 4 3 3 5 7 5 4 4 6 7 6 4 3 5
14 14 13 13 15 15 13 11 13 14 14 12 12 11 11 11 10 11 12 13 14 13 13 13 14 15 16 17 18 18 18 19 20 20 19 18 19 20 20 20 19 19 18 17 17 16 15 14 11 9 8 7 6 5 5 4 3 3 3 4 4 4 4 4 4 4 3 0 2
14 14 14 14 15 15 14 13 15 15 14 12 11 11 11 11 11 11 12 13 13 13 14 16 15 15 15 17 19 20 20 20 20 19 18 18 19 19 19 19 19 19 18 17 17 17 16 15 11 8 7 5 4 3 3 3 2 2 3 3 3 2 2 3 3 2 2 2 3
15 15 14 14 15 15 14 14 15 15 14 12 13 13 13 12 12 13 13 14 14 15 16 17 16 16 16 18 19 19 19 18 17 17 17 18 18 18 19 20 20 19 18 17 17 17 16 14 10 8 6 5 3 2 1 3 4 4 5 5 4 2 0 2 1 1 1 3 4
15 16 16 16 16 16 15 16 15 15 14 12 14 15 16 15 15 16 16 15 14 14 15 14 15 16 17 18 18 17 17 17 16 17 17 17 17 18 19 19 19 19 18 18 18 16 15 12 9 8 6 5 3 1 1 4 5 5 5 6 5 3 1 1 1 2 3 4 5
15 16 16 16 17 17 17 17 16 15 13 12 14 16 18 18 19 18 17 16 14 14 14 13 16 17 18 18 18 18 18 18 17 17 16 16 18 19 19 19 19 19 18 18 17 16 14 11 9 7 7 5 3 1 2 4 3 2 3 4 4 4 3 1 2 3 4 5 5
14 15 16 16 16 17 17 17 16 15 14 14 16 17 19 19 19 18 17 14 14 14 15 14 16 18 19 19 19 18 18 18 18 18 17 17 18 19 19 18 18 18 17 16 16 16 14 11 8 7 7 5 4 3 3 5 4 2 2 4 5 4 3 0 2 3 4 5 5
15 15 16 16 17 17 17 17 16 16 15 15 17 18 18 19 18 17 15 14 14 15 16 15 17 18 19 19 19 18 18 18 18 18 19 19 19 19 19 18 17 17 16 15 15 14 12 9 9 8 8 7 6 5 4 5 5 4 3 4 4 3 3 4 4 4 4 5 6
17 16 16 15 17 18 17 17 15 15 15 15 17 18 18 18 17 17 16 15 16 16 16 16 17 18 18 18 18 18 18 18 17 18 19 19 19 19 18 17 17 17 16 16 14 12 10 8 8 10 10 9 8 8 7 6 6 5 4 3 3 2 4 6 6 5 5 6 7
17 17 16 16 17 17 17 16 15 14 15 16 17 18 17 16 17 17 18 17 17 16 16 16 17 18 17 16 17 18 18 18 18 18 18 18 19 19 19 18 17 17 16 16 13 10 8 6 8 10 11 10 9 8 8 8 8 7 6 4 2 1 2 4 5 4 4 4 6
17 17 16 16 17 17 17 16 14 14 15 17 17 17 16 16 17 18 18 17 16 15 15 15 16 16 16 16 17 18 18 18 19 18 18 18 18 18 19 18 18 18 17 16 12 8 6 4 6 9 10 10 8 8 9 10 9 9 8 7 5 3 1 1 2 2 3 4 4
18 17 17 17 18 17 16 16 14 14 15 17 17 16 16 15 16 17 17 16 16 15 14 14 14 14 15 17 18 19 19 19 19 19 19 18 17 17 17 17 18 18 17 16 12 8 5 3 4 6 8 9 8 8 10 11 10 10 9 8 7 5 5 4 3 2 1 2 3
18 17 17 18 18 17 16 16 14 14 15 16 17 16 15 14 15 16 16 16 16 14 13 13 13 14 15 18 19 20 20 20 20 20 20 19 18 17 17 17 17 17 17 18 15 11 7 4 4 6 7 9 8 7 8 9 9 8 7 6 6 5 5 6 5 4 3 2 2
18 18 18 18 18 17 16 16 13 13 15 16 17 16 15 14 14 15 16 17 15 13 12 14 14 13 14 16 18 18 19 19 20 20 21 20 19 17 16 17 17 17 17 18 18 17 14 11 9 9 9 10 10 7 5 2 2 2 3 3 3 3 3 4 4 5 4 4 4
18 18 18 18 18 17 17 16 15 14 15 17 17 17 15 14 14 15 16 17 15 14 14 15 14 13 13 14 15 16 16 17 18 19 19 20 19 18 16 15 16 16 17 17 18 19 18 17 15 13 12 12 12 12 10 9 7 6 6 6 5 4 3 3 3 4 4 5 5
18 18 18 18 18 18 18 17 16 16 16 17 17 16 15 15 15 15 16 17 17 17 16 15 14 14 14 14 14 14 14 15 16 17 18 19 19 18 16 14 14 15 16 16 17 18 19 19 17 16 14 13 13 13 13 12 11 10 10 10 10 9 8 7 5 4 4 5 5
18 18 18 18 18 18 17 17 17 17 16 16 16 15 15 16 15 15 16 17 18 17 16 15 14 14 14 15 14 14 14 14 16 17 18 18 19 19 18 15 13 13 14 15 16 17 17 17 17 16 15 14 14 13 13 13 12 12 12 12 12 12 11 10 9 7 7 6 6
18 18 18 18 17 17 17 17 16 16 16 15 16 16 16 16 16 16 16 17 18 17 16 14 13 14 14 15 15 15 14 13 15 16 17 17 18 18 19 17 13 12 12 14 15 15 16 16 16 16 15 15 15 14 13 12 13 13 13 12 13 13 13 12 11 10 9 8 7
18 18 17 17 17 16 16 16 16 16 16 15 16 16 16 16 16 16 16 17 18 17 15 13 13 13 13 14 15 15 14 12 14 15 16 16 17 17 18 17 15 11 10 11 13 14 14 15 15 15 15 15 14 14 13 12 12 13 13 12 12 13 13 12 12 12 11 10 9
17 17 16 16 16 16 16 16 16 16 16 16 16 16 16 16 16 16 16 16 17 17 16 13 12 12 12 13 14 14 14 13 14 14 15 15 16 16 16 16 16 13 10 10 11 12 12 13 13 14 14 13 14 14 13 12 12 12 12 12 12 12 12 12 12 12 12 12 11
16 16 15 15 16 16 17 16 16 16 16 16 16 16 16 16 16 16 16 16 17 17 16 12 11 11 11 11 12 13 14 14 14 15 15 16 16 16 16 14 16 15 12 8 9 9 9 10 11 12 12 12 13 13 13 12 12 11 11 11 11 11 11 11 12 12 12 13 13
16 15 15 14 15 16 16 16 16 17 17 16 16 16 16 16 16 16 16 16 17 17 16 12 10 10 10 10 11 12 13 14 15 16 16 16 16 16 16 14 14 14 13 10 9 10 9 7 8 9 9 10 10 11 11 11 11 11 11 11 11 11 11 11 12 12 12 13 12
16 16 15 15 16 16 16 16 17 17 17 17 16 16 16 16 16 16 16 16 16 17 17 14 11 9 9 10 10 11 12 13 14 15 16 16 16 16 15 13 13 12 12 13 14 14 14 11 9 7 7 8 8 9 9 10 11 11 10 10 10 10 11 11 12 12 12 12 12
16 16 16 16 16 16 16 17 17 17 17 17 17 17 17 17 16 16 16 16 16 16 17 15 11 10 10 9 10 11 11 11 12 13 14 15 15 15 15 13 12 11 12 18 19 16 15 16 14 11 8 7 7 8 8 8 10 10 10 10 10 10 10 10 11 11 11 11 11
16 16 16 16 16 16 16 16 16 16 17 17 18 18 17 17 16 16 16 16 15 15 15 14 12 11 10 9 10 11 12 11 11 12 13 14 14 14 14 12 12 11 14 22 23 17 13 16 17 15 11 7 7 7 7 7 8 9 9 9 9 9 9 9 10 10 10 10 10
16 16 16 16 16 16 16 16 16 16 17 17 17 17 17 17 17 17 16 16 15 14 14 13 13 11 9 8 10 11 12 11 11 11 12 13 13 13 13 12 12 13 18 26 26 18 12 15 17 16 14 10 7 6 6 6 7 7 7 7 8 8 8 8 8 8 9 9 9
16 16 16 16 16 16 16 15 16 16 16 16 17 17 17 17 17 17 17 17 16 14 13 12 12 11 10 10 10 11 11 12 11 11 11 13 13 13 13 13 12 15 21 29 27 16 10 15 16 16 15 12 7 5 5 5 5 6 6 6 7 7 8 8 7 8 8 8 8
15 15 15 16 16 16 15 15 15 16 16 15 16 16 17 17 17 17 17 17 16 15 13 12 12 13 13 13 12 11 11 11 11 11 11 13 14 14 13 13 13 15 21 29 24 13 11 15 16 16 15 13 9 6 5 5 5 6 6 6 7 8 8 8 8 8 8 8 8
15 15 15 16 16 16 15 15 14 15 16 15 16 16 16 16 17 17 17 17 16 15 15 15 15 15 15 15 13 12 12 12 11 11 11 12 13 13 13 13 13 16 21 28 19 12 14 16 16 15 14 12 9 6 5 5 6 6 6 7 8 8 8 8 8 9 9 9 8
15 15 15 15 16 15 15 14 14 14 15 16 16 16 16 16 16 16 16 16 16 16 16 16 16 16 16 15 14 14 13 12 12 12 12 12 13 13 13 13 13 16 21 26 16 14 16 16 15 14 13 11 8 6 5 5 5 6 6 7 8 9 8 8 8 9 9 9 9
15 15 15 15 15 15 15 14 13 14 15 16 16 16 16 16 16 16 16 15 15 16 16 16 16 16 15 15 15 14 14 13 13 13 13 13 12 12 12 12 12 16 21 25 16 16 17 16 14 13 12 11 8 6 5 5 5 6 6 7 8 9 9 9 8 8 9 9 8
16 15 15 15 15 15 15 14 14 14 15 16 16 16 16 16 16 15 15 15 15 15 15 15 15 15 15 15 14 14 13 13 13 13 13 12 12 12 12 11 11 16 22 24 16 15 16 15 14 13 12 11 7 6 5 6 6 6 7 8 8 9 9 9 9 8 8 8 8
15 15 15 15 15 15 15 14 14 14 15 16 16 16 16 15 15 15 15 15 15 15 14 14 14 14 15 15 15 14 14 13 13 13 12 12 12 13 13 13 12 17 23 25 15 13 14 14 12 12 10 9 6 5 5 6 6 7 8 8 9 9 9 9 8 8 7 7 8
15 15 16 16 15 15 15 14 14 14 15 16 17 17 16 15 14 14 14 15 15 14 14 14 14 15 15 16 15 14 13 13 13 13 13 13 13 13 13 13 14 18 23 25 17 13 12 12 11 10 9 7 5 4 4 4 5 6 7 8 8 9 9 8 8 8 7 6 7
15 15 16 16 16 15 15 13 13 14 15 16 16 16 16 15 14 13 13 14 14 14 14 14 14 15 16 16 15 14 13 12 13 13 13 13 13 13 13 14 14 17 20 24 20 14 11 11 10 9 7 5 4 3 3 3 4 4 5 6 7 7 7 7 7 7 7 7 8
15 15 16 16 16 15 14 13 13 14 15 16 16 16 15 14 13 13 13 14 13 13 13 13 14 15 15 16 15 14 13 12 12 13 13 13 13 13 13 14 14 15 18 23 23 17 11 10 9 7 6 3 3 2 2 2 3 3 4 4 5 6 6 5 5 6 7 9 12
16 16 16 16 16 15 14 12 13 14 15 16 16 15 15 14 13 13 13 13 12 12 12 13 13 14 15 16 14 13 12 12 12 12 12 12 13 14 14 13 13 15 18 23 25 21 15 9 8 7 5 3 2 2 2 2 3 3 3 3 4 4 5 5 5 6 7 9 13
15 15 16 16 16 15 14 13 14 14 15 15 16 15 15 14 13 13 13 12 11 11 11 12 13 14 15 15 14 13 12 12 11 11 12 13 13 15 15 13 13 14 17 22 24 24 20 13 9 7 5 3 2 2 1 2 2 3 3 3 3 4 4 4 4 5 6 7 10
14 15 15 16 16 14 13 13 14 14 15 15 15 15 14 14 13 13 12 12 12 11 11 11 13 14 15 15 13 12 13 13 11 11 11 12 13 13 14 12 12 13 16 19 23 24 23 19 13 8 5 3 3 3 2 2 2 3 3 3 3 3 3 4 4 4 5 6 6
Wind_Direction
344 343 342 340 339 337 335 333 334 335 335 332 329 327 326 325 324 324 324 323 322 320 318 316 315 313 313 313 311 309 308 307 307 308 308 308 307 306 305 303 302 300 299 299 298 297 296 295 292 289 284 282 282 282 281 277 277 278 277 272 263 256 251 249 246 232 207 175 165
343 342 341 340 339 337 335 334 335 336 335 332 328 326 326 326 325 324 324 323 321 319 317 314 313 312 311 310 308 307 307 307 307 308 307 306 305 303 302 301 299 299 298 298 297 295 293 293 291 287 283 279 280 281 281 277 276 282 283 280 273 262 253 251 252 241 217 171 155
341 341 340 340 340 339 338 336 337 336 334 330 328 327 327 327 326 324 323 321 319 317 315 314 313 312 310 309 308 308 307 307 307 306 305 303 302 301 300 299 298 297 297 297 295 293 290 290 288 285 280 276 278 280 282 279 275 278 281 282 277 266 253 251 260 259 244 163 143
341 341 340 340 340 340 340 338 337 335 333 330 328 328 328 328 326 323 321 319 318 316 315 314 312 310 310 310 310 309 307 306 305 303 302 300 299 299 298 297 296 296 296 295 294 292 289 287 285 281 276 272 276 280 284 284 284 285 285 284 277 263 251 246 260 273 287 2 109
341 341 340 339 341 341 340 339 337 335 332 329 329 330 330 328 326 323 321 320 319 317 314 312 311 310 311 311 309 308 306 304 303 302 300 299 298 298 297 297 296 296 296 295 294 292 289 286 283 277 271 266 273 282 291 302 329 335 325 310 293 266 234 223 238 267 319 9 30
339 339 339 340 341 342 341 339 336 334 331 329 330 330 330 328 326 324 323 321 317 314 313 312 312 312 312 312 309 307 306 304 303 301 299 298 297 296 296 295 295 295 295 295 294 292 289 286 282 275 267 258 261 278 329 18 18 6 350 332 323 315 217 158 160 113 66 66 53
337 338 340 341 343 342 340 338 335 333 331 330 331 331 330 328 326 324 322 320 318 316 316 317 317 316 315 314 311 310 308 306 304 301 299 297 296 295 295 295 294 294 294 294 293 291 288 284 280 274 267 256 252 257 41 43 25 6 348 329 323 318 310 150 119 106 98 95 86
337 339 341 343 343 342 339 337 335 333 332 332 332 331 330 328 327 326 324 321 320 320 320 320 319 318 318 317 316 315 313 311 309 306 303 299 297 295 294 293 292 291 291 291 291 289 286 282 278 273 266 254 247 222 95 83 61 20 326 302 294 282 261 206 142 123 113 105 97
338 340 342 344 343 341 339 337 335 333 332 332 332 331 330 330 329 328 325 322 322 322 322 321 322 322 323 323 322 322 321 319 316 313 309 305 301 298 295 293 291 290 289 289 289 286 283 279 275 270 263 248 239 216 151 124 124 148 236 260 264 265 265 72 94 98 100 95 83
339 341 343 344 343 341 339 337 335 334 333 333 333 332 331 330 330 329 326 323 322 323 324 324 326 328 329 329 329 328 326 324 321 318 315 311 307 303 300 296 293 291 289 288 287 284 280 275 273 270 263 247 237 223 193 155 157 173 208 243 261 287 332 12 27 44 60 70 67
340 341 343 344 343 341 339 338 336 335 335 335 335 333 331 331 330 328 326 325 324 324 326 328 331 333 334 334 334 332 330 327 324 322 320 318 317 315 312 308 302 297 293 290 287 283 278 274 276 274 268 253 240 229 216 193 185 190 205 233 263 323 4 15 14 21 38 60 64
340 341 342 344 343 342 340 339 337 337 337 337 335 334 332 331 330 329 327 326 325 326 328 332 334 336 337 338 337 335 333 330 328 326 326 329 331 331 330 326 321 314 306 298 289 281 274 275 283 282 277 263 246 234 224 214 204 201 204 211 229 331 21 27 18 14 21 45 61
340 341 343 345 344 343 341 339 337 337 337 337 335 334 332 331 331 330 329 327 327 328 331 333 335 337 339 341 341 339 337 335 333 333 334 337 341 342 341 338 336 331 324 313 297 280 265 272 293 296 291 277 258 239 227 219 213 210 211 212 210 203 162 96 60 28 19 31 52
341 342 344 346 345 344 342 340 338 337 337 336 334 333 332 331 331 331 330 327 328 329 331 333 334 337 340 343 343 343 342 340 339 338 338 340 343 345 345 344 343 340 337 330 316 296 274 282 313 317 312 300 276 249 230 219 216 215 215 214 210 200 184 166 158 138 65 45 54
343 343 345 347 346 345 342 340 338 337 337 335 334 333 332 331 331 331 330 329 329 329 331 333 334 336 340 343 345 345 344 344 344 342 341 340 343 346 349 349 348 348 346 344 338 330 322 326 341 346 343 334 313 278 242 220 213 209 205 202 199 194 185 173 166 162 151 127 96
343 344 345 347 346 344 342 341 338 337 336 334 333 332 331 331 331 331 331 331 330 330 332 335 334 336 338 342 344 345 345 346 346 345 343 341 342 345 349 353 354 354 354 355 354 353 353 353 0 8 10 7 357 344 322 274 202 162 146 140 153 163 164 158 156 154 150 142 128
344 344 345 345 344 343 341 340 338 336 335 333 331 330 330 330 330 331 332 333 331 331 333 335 335 336 338 340 342 344 345 345 346 346 344 342 341 342 346 353 357 359 1 2 4 4 4 4 8 13 18 23 22 18 13 10 23 41 56 62 61 62 67 81 103 119 125 123 119
345 344 343 343 342 341 340 338 337 335 333 331 329 329 329 329 330 330 331 333 331 331 332 335 336 337 339 340 341 343 345 345 345 344 344 343 342 342 343 348 357 3 6 8 9 10 10 10 11 13 18 26 31 30 26 21 24 32 41 48 47 46 44 42 46 61 81 92 96
345 344 343 342 341 339 338 337 335 334 332 330 328 327 327 328 329 329 330 331 331 330 331 333 336 338 340 341 342 344 346 346 345 344 343 343 344 345 345 346 355 5 12 14 14 14 14 14 14 15 19 24 30 32 32 28 28 31 37 43 44 43 41 38 37 40 48 59 66
345 344 342 341 339 338 336 335 334 332 331 329 328 328 327 328 329 330 331 331 330 329 329 331 335 338 340 342 343 344 346 346 345 344 343 343 346 347 347 346 351 4 16 20 18 17 16 16 16 18 21 24 28 30 31 31 31 32 35 39 41 41 40 38 36 36 37 39 42
344 343 341 339 338 336 335 334 333 331 330 329 329 329 329 329 330 331 331 331 331 330 329 332 336 338 340 342 343 344 344 344 345 344 344 343 345 348 348 347 347 357 15 27 24 20 17 16 17 19 22 24 26 27 28 29 30 31 33 36 38 39 38 37 35 33 31 30 30
342 341 340 338 337 336 335 334 333 332 332 331 331 331 330 331 331 332 332 332 333 332 331 332 336 338 340 342 342 342 343 343 344 345 344 343 344 346 348 349 346 349 3 32 34 28 22 17 17 19 21 24 24 25 25 26 27 28 31 34 36 38 38 36 35 32 29 27 26
340 340 339 338 337 336 336 335 335 334 334 333 333 332 332 332 332 332 333 334 335 335 333 332 334 337 338 340 341 342 342 343 345 345 345 345 344 345 347 350 347 346 350 18 39 40 32 22 18 19 20 23 24 24 23 23 23 25 27 29 31 34 35 36 35 34 32 29 28
338 339 339 338 338 337 337 337 337 337 336 334 334 334 333 333 333 333 334 336 337 336 335 332 333 335 337 339 340 342 344 345 345 346 346 345 345 345 346 348 349 345 344 352 26 44 48 40 27 22 21 23 24 24 23 21 21 22 24 25 26 29 31 33 34 34 34 33 31
337 338 339 339 339 338 339 340 339 338 337 335 335 335 335 334 334 334 335 337 338 338 336 332 332 334 338 339 341 342 344 345 345 345 345 345 345 345 346 347 347 344 342 343 8 32 51 55 49 38 27 24 25 24 24 22 22 22 23 24 24 25 27 28 30 33 34 35 34
337 338 339 340 339 339 340 341 340 338 337 337 337 337 337 335 334 335 336 337 339 339 338 335 332 336 341 341 340 341 343 344 344 344 344 343 344 345 346 346 344 341 338 339 352 15 44 54 54 51 44 30 27 26 25 23 23 23 24 25 25 26 26 27 27 29 31 34 34
338 339 339 339 339 340 340 340 340 339 339 339 339 338 337 336 335 335 336 337 339 341 341 338 334 336 339 339 340 341 341 341 341 341 341 341 342 344 345 344 342 338 335 335 343 0 35 51 53 53 50 41 32 28 27 25 23 24 25 26 27 27 28 28 27 28 29 31 32
338 338 338 339 340 339 339 340 341 341 341 340 339 338 337 336 336 336 336 336 339 342 344 342 338 336 335 337 339 339 338 338 338 338 338 338 340 342 344 344 342 337 333 333 338 351 29 53 54 54 52 47 38 30 26 25 23 23 25 26 27 28 29 29 29 29 29 30 31
337 337 338 339 339 339 339 340 341 342 342 340 339 338 337 337 338 338 337 337 339 342 344 343 340 338 336 336 337 337 337 336 336 335 335 336 338 341 343 343 341 336 332 330 334 347 36 60 58 56 54 50 42 31 23 22 22 23 24 25 26 27 29 31 31 31 31 30 31
336 337 337 338 338 338 339 339 340 341 342 341 339 338 338 338 339 339 339 338 339 341 343 342 341 340 340 338 337 337 337 336 335 334 334 334 336 338 340 341 340 335 331 329 333 355 56 67 63 60 58 54 48 38 26 23 24 26 26 27 27 27 28 31 32 32 32 31 31
336 336 337 337 337 337 337 336 338 340 342 342 340 339 339 340 340 339 338 337 338 340 341 341 341 341 341 340 339 337 336 335 335 335 334 333 334 335 336 339 339 334 331 332 345 25 68 68 64 63 61 58 51 41 30 27 29 30 30 30 28 27 27 28 30 31 31 31 32
335 336 337 336 336 335 334 333 336 339 342 342 341 341 340 340 339 338 337 336 338 340 341 341 341 341 341 340 339 338 338 337 337 337 335 334 333 334 336 340 339 335 335 340 8 47 67 62 62 63 63 60 53 43 32 32 34 35 34 33 30 28 26 26 27 28 30 31 32
335 336 336 335 334 333 332 332 335 339 342 343 343 342 341 339 338 337 337 337 339 340 340 340 340 339 339 339 337 337 338 339 338 337 336 335 334 335 339 343 341 338 340 349 20 48 58 55 56 58 59 56 49 40 32 34 37 37 35 33 30 28 26 25 25 26 27 30 31
335 335 335 334 333 331 331 331 335 339 342 343 342 342 341 339 338 337 337 337 339 339 339 338 338 338 337 337 336 336 337 340 340 339 338 338 338 340 344 347 343 341 343 351 16 42 51 50 51 52 52 48 41 33 30 36 39 39 37 34 30 27 24 23 22 22 23 27 30
334 334 334 333 331 331 331 332 335 339 342 343 342 341 340 339 337 336 335 335 337 337 337 337 337 337 337 336 335 335 337 340 340 341 342 343 343 346 348 349 345 343 344 349 8 35 48 48 48 48 46 40 31 26 29 36 41 41 39 36 31 26 22 20 19 17 18 25 31
334 334 333 331 331 330 331 332 336 340 343 343 342 340 339 337 336 334 334 335 336 336 336 336 337 338 337 336 335 335 337 341 343 345 347 349 348 349 350 349 346 344 345 348 3 28 49 49 49 48 44 36 25 21 27 36 41 42 41 39 33 26 20 18 17 15 16 23 37
334 333 332 331 330 330 330 333 338 342 343 342 341 339 338 336 334 334 334 336 335 335 335 336 337 338 337 335 333 333 337 343 347 349 351 352 351 351 352 349 346 344 344 346 358 18 46 51 51 50 46 33 20 18 25 36 42 44 44 43 35 27 20 16 15 14 16 22 40
334 333 332 331 330 330 331 335 343 345 345 342 340 338 337 335 335 334 335 336 334 333 333 335 336 336 334 333 331 332 337 345 351 353 354 353 352 353 354 351 346 343 343 344 354 7 32 46 50 52 51 36 19 16 27 42 47 47 46 46 39 29 21 16 14 14 16 19 32
335 334 333 332 330 330 332 341 348 349 345 341 339 337 336 336 335 335 334 333 331 330 331 332 334 333 332 332 332 333 337 344 351 353 354 354 353 356 357 353 347 343 343 343 351 1 14 31 41 48 51 38 14 9 29 54 54 51 48 47 43 34 26 19 18 17 15 15 22
335 335 334 333 331 331 336 348 352 351 346 342 340 338 337 336 334 333 332 330 328 328 329 331 332 332 332 334 334 334 336 340 345 349 351 352 353 356 357 354 348 345 344 344 349 357 5 17 26 37 42 28 353 344 5 57 60 56 49 44 45 40 33 24 23 21 18 13 13
336 336 335 334 332 335 342 353 354 351 346 343 341 338 337 335 333 332 331 329 329 329 330 331 331 331 332 335 336 336 336 337 340 342 345 348 351 354 356 353 348 346 345 344 348 353 360 8 15 22 26 18 348 337 344 28 56 56 52 43 44 43 40 31 28 24 21 14 8